Date String (YYYY-MM-DD hh:mm:ss) UTC,Instrument flags,Ambient pressure (hPa),Sample flow (lpm),Bypass flow (lpm),Sample temperature (°C),Ambient temperature (°C),ASC tube jacket temperature (°C),LED temperature (°C),Box temperature (°C),Sample RH (%),Span deviation,Mass concentration (μg/m³),Mass concentration (μg/m³),Mass concentration (μg/m³)
DateTimeUTC,F1_M11,P_M11,Q1_M11,Q2_M11,T1_M11,T2_M11,T3_M11,T4_M11,T5_M11,U1_M11,ZSPAN_M11,X0_M11,X2_M11,X1_M11
2022-11-08 13:00:00,,0821.8,5.01,0.00,23.4,22.0,00.0,32.2,25.2,13.3,0003.4,0008.25,0003.64,0003.31
2022-11-08 13:01:00,,0821.8,5.00,0.00,23.4,21.9,00.0,32.2,25.2,13.2,0003.5,0008.27,0003.65,0003.32
2022-11-08 13:02:00,,0821.8,4.98,0.00,23.4,21.9,00.0,32.2,25.2,13.2,0003.3,0007.76,0003.69,0003.37
2022-11-08 13:03:00,,0821.8,5.01,0.00,23.4,21.9,00.0,32.2,25.2,12.8,0003.2,0007.61,0003.71,0003.38
2022-11-08 13:04:00,,0821.8,5.00,0.00,23.4,21.9,00.0,32.2,25.2,13.2,0003.2,0007.50,0003.67,0003.37
2022-11-08 13:05:00,,0821.8,4.99,0.00,23.3,21.9,00.0,32.2,25.2,12.9,0003.4,0007.44,0003.70,0003.39
2022-11-08 13:06:00,,0821.8,5.01,0.00,23.3,21.9,00.0,32.2,25.2,11.8,0003.8,0006.78,0003.64,0003.33
2022-11-08 13:07:00,,0821.8,4.99,0.00,23.3,21.8,00.0,32.2,25.1,11.7,0003.6,0006.77,0003.55,0003.24
2022-11-08 13:08:00,,0821.8,5.02,0.00,23.3,21.8,00.0,32.2,25.1,11.5,0003.4,0006.51,0003.45,0003.15
2022-11-08 13:09:00,,0821.7,5.00,0.00,23.3,21.8,00.0,32.2,25.1,10.7,0003.3,0006.14,0003.32,0002.97
2022-11-08 13:10:00,,0821.7,4.99,0.00,23.3,21.8,00.0,32.2,25.1,10.4,0003.4,0005.78,0003.17,0002.72
2022-11-08 13:11:00,,0821.7,5.01,0.00,23.3,21.8,00.0,32.2,25.2,10.0,0001.0,0005.15,0002.83,0002.42
2022-11-08 13:12:00,,0821.6,4.99,0.00,23.3,21.8,00.0,32.2,25.2,09.9,0000.0,0004.50,0002.51,0002.15
2022-11-08 13:13:00,,0821.7,5.00,0.00,23.3,21.8,00.0,32.2,25.2,10.0,0000.0,0004.01,0002.17,0001.84
2022-11-08 13:14:00,,0821.7,4.99,0.00,23.3,21.8,00.0,32.2,25.1,10.1,0000.0,0003.60,0001.90,0001.59
2022-11-08 13:15:00,,0821.7,5.01,0.00,23.3,21.8,00.0,32.2,25.1,10.1,0000.0,0003.26,0001.65,0001.34
2022-11-08 13:16:00,,0821.7,4.99,0.00,23.3,21.8,00.0,32.2,25.1,10.4,0000.0,0002.59,0001.31,0001.05
2022-11-08 13:17:00,,0821.7,5.00,0.00,23.3,21.8,00.0,32.2,25.1,10.3,0000.0,0001.95,0001.10,0000.91
2022-11-08 13:18:00,,0821.7,5.01,0.00,23.3,21.8,00.0,32.1,25.1,10.0,0000.0,0001.60,0000.96,0000.81
2022-11-08 13:19:00,,0821.7,4.99,0.00,23.3,21.8,00.0,32.1,25.1,10.0,0000.0,0001.33,0000.87,0000.71
2022-11-08 13:20:00,,0821.7,5.00,0.00,23.3,21.8,00.0,32.1,25.1,10.0,0000.0,0001.24,0000.82,0000.65
2022-11-08 13:21:00,,0821.7,5.00,0.00,23.3,21.8,00.0,32.1,25.1,10.0,0000.0,0001.16,0000.79,0000.64
2022-11-08 13:22:00,,0821.7,4.99,0.00,23.3,21.8,00.0,32.1,25.1,10.0,0000.0,0001.27,0000.81,0000.64
2022-11-08 13:23:00,,0821.7,5.01,0.00,23.3,21.8,00.0,32.1,25.1,10.0,0000.0,0001.32,0000.83,0000.64
2022-11-08 13:24:00,,0821.6,5.01,0.00,23.3,21.8,00.0,32.1,25.1,09.9,0000.0,0001.27,0000.81,0000.64
2022-11-08 13:25:00,,0821.6,5.00,0.00,23.3,21.8,00.0,32.1,25.1,09.9,0000.0,0001.24,0000.80,0000.64
2022-11-08 13:26:00,,0821.6,4.99,0.00,23.3,21.8,00.0,32.1,25.1,09.9,0000.0,0001.25,0000.81,0000.64
2022-11-08 13:27:00,,0821.7,5.02,0.00,23.3,21.8,00.0,32.1,25.1,10.0,0000.0,0001.25,0000.81,0000.65
2022-11-08 13:28:00,,0821.7,4.99,0.00,23.3,21.8,00.0,32.1,25.1,10.7,0000.0,0001.33,0000.86,0000.69
2022-11-08 13:29:00,,0821.8,5.00,0.00,23.3,21.8,00.0,32.1,25.1,11.0,0000.0,0001.73,0000.97,0000.77
2022-11-08 13:30:00,,0821.9,5.00,0.00,23.3,21.8,00.0,32.1,25.1,10.7,0000.0,0001.91,0000.99,0000.80
2022-11-08 13:31:00,,0821.8,4.99,0.00,23.3,21.8,00.0,32.1,25.1,10.7,0000.0,0002.00,0001.00,0000.82
2022-11-08 13:32:00,,0821.8,5.00,0.00,23.3,21.8,00.0,32.1,25.1,10.6,0000.0,0001.98,0001.03,0000.85
2022-11-08 13:33:00,,0821.7,5.00,0.00,23.3,21.9,00.0,32.1,25.1,10.8,0000.0,0002.04,0001.08,0000.92
2022-11-08 13:34:00,,0821.7,4.99,0.00,23.3,21.8,00.0,32.1,25.1,10.9,0000.0,0003.96,0001.15,0000.98
2022-11-08 13:35:00,,0821.7,5.01,0.00,23.3,21.8,00.0,32.1,25.1,11.0,0000.0,0004.10,0001.23,0001.04
2022-11-08 13:36:00,,0821.7,4.99,0.00,23.3,21.8,00.0,32.1,25.1,11.3,0000.0,0004.49,0001.38,0001.14
2022-11-08 13:37:00,,0821.7,4.99,0.00,23.3,21.8,00.0,32.1,25.1,11.5,0000.0,0004.76,0001.55,0001.26
2022-11-08 13:38:00,,0821.6,5.01,0.00,23.3,21.8,00.0,32.1,25.1,10.9,0000.0,0005.01,0001.70,0001.37
2022-11-08 13:39:00,,0821.6,4.98,0.00,23.3,21.8,00.0,32.1,25.1,10.3,0000.0,0005.00,0001.70,0001.37
2022-11-08 13:40:00,,0821.7,5.01,0.00,23.3,21.8,00.0,32.1,25.1,10.3,0000.0,0004.68,0001.63,0001.31
2022-11-08 13:41:00,,0821.7,5.01,0.00,23.3,21.8,00.0,32.1,25.1,10.1,0000.0,0004.56,0001.65,0001.31
2022-11-08 13:42:00,,0821.7,5.00,0.00,23.3,21.8,00.0,32.1,25.1,10.3,0000.0,0004.53,0001.67,0001.31
2022-11-08 13:43:00,,0821.7,4.99,0.00,23.3,21.8,00.0,32.1,25.1,10.4,0000.0,0004.58,0001.69,0001.31
2022-11-08 13:44:00,,0821.7,5.02,0.00,23.3,21.8,00.0,32.1,25.1,10.3,0000.0,0004.64,0001.69,0001.29
2022-11-08 13:45:00,,0821.7,4.98,0.00,23.3,21.8,00.0,32.0,25.1,10.1,0000.0,0002.87,0001.65,0001.24
2022-11-08 13:46:00,,0821.7,5.01,0.00,23.3,21.9,00.0,32.0,25.2,10.5,0000.0,0002.67,0001.65,0001.22
2022-11-08 13:47:00,,0821.7,4.99,0.00,23.3,21.9,00.0,32.1,25.2,10.5,0000.0,0002.53,0001.58,0001.20
2022-11-08 13:48:00,,0821.8,5.00,0.00,23.3,21.9,00.0,32.1,25.1,09.9,0000.0,0002.47,0001.46,0001.11
2022-11-08 13:49:00,,0821.8,5.01,0.00,23.3,21.9,00.0,32.1,25.1,10.9,0000.0,0002.26,0001.35,0001.02
2022-11-08 13:50:00,,0821.8,4.99,0.00,23.3,21.9,00.0,32.1,25.1,10.8,0000.0,0002.32,0001.40,0001.06
2022-11-08 13:51:00,,0821.8,5.00,0.00,23.3,21.9,00.0,32.1,25.2,10.9,0000.0,0002.42,0001.47,0001.12
2022-11-08 13:52:00,,0821.8,5.02,0.00,23.3,21.9,00.0,32.1,25.1,10.9,0000.0,0002.62,0001.55,0001.18
2022-11-08 13:53:00,,0821.8,4.99,0.00,23.3,21.9,00.0,32.1,25.1,11.1,0000.0,0002.77,0001.60,0001.24
2022-11-08 13:54:00,,0821.8,4.99,0.00,23.3,21.9,00.0,32.1,25.1,10.8,0000.0,0002.80,0001.60,0001.25
2022-11-08 13:55:00,,0821.8,5.02,0.00,23.3,21.9,00.0,32.1,25.1,10.7,0000.0,0002.71,0001.55,0001.22
2022-11-08 13:56:00,,0821.8,4.98,0.00,23.3,21.9,00.0,32.1,25.2,10.4,0000.0,0002.67,0001.53,0001.21
2022-11-08 13:57:00,,0821.8,5.01,0.00,23.3,21.9,00.0,32.1,25.1,10.4,0000.0,0002.61,0001.50,0001.19
2022-11-08 13:58:00,,0821.7,5.00,0.00,23.3,21.9,00.0,32.1,25.1,10.6,0000.0,0002.43,0001.44,0001.13
2022-11-08 13:59:00,,0821.7,4.99,0.00,23.3,21.9,00.0,32.1,25.1,11.5,0000.0,0002.23,0001.40,0001.12
